Location: Utrecht
(52.0907°N, 5.1214°E)
Time: 07:54:17
(UTC+02:00)

SPROUT - Pass Details

Date: 06 July 2022
Orbit: 588 x 598 km, 97.9° (Epoch: 18 August)

Event Time Altitude Azimuth Distance (km) Brightness Sun altitude
Exits shadow 01:30:28 14° 126° (SE) 1,683 ? -15.1°
Maximum altitude 01:33:36 34° 66° (ENE) 976 ? -15.2°
Drops below altitude 10° 01:37:23 10° 1° (N) 1,933 ? -15.2°
Sets 01:39:42 0° 352° (N) 2,841 ? -15.2°
